This is the latest recevied weather packets stored in our database for station/object CE2KVL-1. If no packets are shown the sender has not sent any weather packets the latest 10 day(s).
| Time | Temp. | Humidity | Pressure | Rain* | Wind** | Luminosity | Snow |
|---|---|---|---|---|---|---|---|
| 1778282286 | 14.44° C | 65% | 1023.4 hPa | - | - | - | - |
| 1778281986 | 14.44° C | 64% | 1023.1 hPa | - | - | - | - |
| 1778281686 | 14.44° C | 63% | 1023.2 hPa | - | - | - | - |
| 1778281386 | 14.44° C | 64% | 1023.7 hPa | - | - | - | - |
| 1778281086 | 14.44° C | 63% | 1023.3 hPa | - | - | - | - |
| 1778280786 | 14.44° C | 62% | 1023.3 hPa | - | - | - | - |
| 1778280486 | 14.44° C | 62% | 1023 hPa | - | - | - | - |
| 1778280186 | 14.44° C | 62% | 1023.3 hPa | - | - | - | - |
| 1778279886 | 14.44° C | 61% | 1023.4 hPa | - | - | - | - |
| 1778279586 | 14.44° C | 60% | 1022.9 hPa | - | - | - | - |
| 1778279286 | 14.44° C | 60% | 1022.9 hPa | - | - | - | - |
| 1778278986 | 14.44° C | 60% | 1022.9 hPa | - | - | - | - |
| 1778278686 | 14.44° C | 60% | 1022.9 hPa | - | - | - | - |
| 1778278386 | 14.44° C | 59% | 1022.9 hPa | - | - | - | - |
| 1778278086 | 14.44° C | 59% | 1022.6 hPa | - | - | - | - |
| 1778277786 | 14.44° C | 59% | 1023 hPa | - | - | - | - |
| 1778277486 | 14.44° C | 58% | 1023.2 hPa | - | - | - | - |
| 1778277186 | 15° C | 57% | 1022.8 hPa | - | - | - | - |
| 1778276886 | 15° C | 56% | 1023.1 hPa | - | - | - | - |
| 1778276586 | 15° C | 54% | 1022.8 hPa | - | - | - | - |
| 1778276286 | 15° C | 51% | 1022.6 hPa | - | - | - | - |
| 1778275987 | 15.56° C | 46% | 1022.5 hPa | - | - | - | - |
| 1778275686 | 15.56° C | 44% | 1022.3 hPa | - | - | - | - |
| 1778275386 | 15.56° C | 44% | 1022.5 hPa | - | - | - | - |
| 1778275086 | 15.56° C | 43% | 1022.2 hPa | - | - | - | - |
* Rain since midnight (hover to see other rain measurements)
** Current wind speed in m/s (hover to see current wind gust speed)